When you browse on this site, cookies collect data to enhance your experience and personalize the content and advertising you see.
Visit our Privacy Policy to learn more. By continuing to use the site, you agree to this use of cookies and data.
  • In Lithuania
  • List of Countries
  • For 7 days
  • Water Temperature
  • Weather Map
  • Weather Widgets
  • user-avatar
    Login

    Hourly Weather Pervomayskiy

    Today, 30 May, Saturday

    Time Temperature Precipitation Wind Pressure Humidity
    00:00 +17°C° 0.2 mm 6 mps 746 mmHg 89%
    01:00 +17°C° 2 mm 6 mps 746 mmHg 90%
    02:00 +16°C° 2 mm 7 mps 746 mmHg 91%
    03:00 +16°C° 0 mm 3 mps 747 mmHg 89%
    04:00 +15°C° 0.1 mm 4 mps 748 mmHg 89%
    05:00 +15°C° 0.1 mm 4 mps 748 mmHg 88%
    06:00 +14°C° 0.1 mm 4 mps 748 mmHg 88%
    07:00 +15°C° 0 mm 5 mps 749 mmHg 83%
    08:00 +16°C° 0 mm 6 mps 749 mmHg 79%
    09:00 +17°C° 0 mm 7 mps 749 mmHg 74%
    10:00 +18°C° 0.1 mm 7 mps 749 mmHg 70%
    11:00 +20°C° 0.1 mm 8 mps 749 mmHg 66%
    12:00 +21°C° 0.1 mm 8 mps 749 mmHg 63%
    13:00 +21°C° 0.2 mm 8 mps 750 mmHg 62%
    14:00 +21°C° 0.2 mm 8 mps 750 mmHg 62%
    15:00 +21°C° 0 mm 8 mps 750 mmHg 59%
    16:00 +21°C° 0 mm 7 mps 750 mmHg 61%
    17:00 +20°C° 0 mm 6 mps 750 mmHg 63%
    18:00 +20°C° 0 mm 5 mps 750 mmHg 65%
    19:00 +17°C° 0 mm 5 mps 751 mmHg 69%
    20:00 +16°C° 0 mm 5 mps 751 mmHg 73%
    21:00 +14°C° 0 mm 4 mps 752 mmHg 77%
    22:00 +14°C° 0 mm 4 mps 752 mmHg 79%
    23:00 +13°C° 0 mm 4 mps 752 mmHg 81%

    Tomorrow, 31 May, Sunday

    Time Temperature Precipitation Wind Pressure Humidity
    00:00 +13°C° 0 mm 4 mps 752 mmHg 83%
    01:00 +13°C° 0 mm 4 mps 752 mmHg 85%
    02:00 +12°C° 0 mm 4 mps 752 mmHg 87%
    03:00 +12°C° 0 mm 4 mps 752 mmHg 89%
    04:00 +12°C° 0 mm 4 mps 752 mmHg 89%
    05:00 +12°C° 0 mm 4 mps 752 mmHg 89%
    06:00 +13°C° 0 mm 4 mps 753 mmHg 88%
    07:00 +14°C° 0 mm 4 mps 753 mmHg 83%
    08:00 +17°C° 0 mm 4 mps 753 mmHg 78%
    09:00 +17°C° 0 mm 5 mps 753 mmHg 73%
    10:00 +19°C° 0 mm 5 mps 753 mmHg 68%
    11:00 +20°C° 0 mm 5 mps 752 mmHg 64%
    12:00 +21°C° 0 mm 6 mps 752 mmHg 59%
    13:00 +22°C° 0.1 mm 6 mps 752 mmHg 57%
    14:00 +22°C° 0.1 mm 6 mps 752 mmHg 56%
    15:00 +22°C° 0.1 mm 6 mps 751 mmHg 55%
    16:00 +22°C° 0.1 mm 6 mps 751 mmHg 58%
    17:00 +21°C° 0.1 mm 5 mps 751 mmHg 62%
    18:00 +21°C° 0.1 mm 4 mps 751 mmHg 66%
    19:00 +19°C° 0.1 mm 3 mps 751 mmHg 70%
    20:00 +18°C° 0.1 mm 3 mps 751 mmHg 74%
    21:00 +16°C° 0.1 mm 2 mps 751 mmHg 78%
    22:00 +16°C° 0 mm 2 mps 751 mmHg 80%
    23:00 +15°C° 0 mm 2 mps 751 mmHg 81%

    Day after tomorrow, 1 June, Monday

    Time Temperature Precipitation Wind Pressure Humidity
    00:00 +14°C° 0 mm 2 mps 750 mmHg 83%
    01:00 +14°C° 0 mm 1 mps 750 mmHg 84%
    02:00 +14°C° 0 mm 1 mps 750 mmHg 84%
    03:00 +13°C° 0 mm 1 mps 750 mmHg 85%
    04:00 +14°C° 0 mm 1 mps 750 mmHg 83%
    05:00 +15°C° 0 mm 1 mps 749 mmHg 81%
    06:00 +15°C° 0 mm 1 mps 749 mmHg 79%
    07:00 +18°C° 0 mm 1 mps 749 mmHg 74%
    08:00 +19°C° 0 mm 1 mps 749 mmHg 70%
    09:00 +20°C° 0 mm 2 mps 750 mmHg 65%
    10:00 +21°C° 0.3 mm 2 mps 749 mmHg 61%
    11:00 +23°C° 0.3 mm 2 mps 749 mmHg 56%
    12:00 +25°C° 0.3 mm 2 mps 749 mmHg 51%
    13:00 +25°C° 0.1 mm 2 mps 749 mmHg 51%
    14:00 +25°C° 0.1 mm 2 mps 748 mmHg 51%
    15:00 +25°C° 0.1 mm 3 mps 748 mmHg 51%
    16:00 +24°C° 0.4 mm 2 mps 748 mmHg 55%
    17:00 +24°C° 0.4 mm 2 mps 748 mmHg 60%
    18:00 +23°C° 0.4 mm 2 mps 747 mmHg 65%
    19:00 +20°C° 0.1 mm 2 mps 748 mmHg 69%
    20:00 +19°C° 0.1 mm 2 mps 748 mmHg 73%
    21:00 +17°C° 0.1 mm 2 mps 748 mmHg 77%
    22:00 +17°C° 0.1 mm 2 mps 748 mmHg 78%
    23:00 +16°C° 0.1 mm 1 mps 747 mmHg 80%

    2 June, Tuesday

    Time Temperature Precipitation Wind Pressure Humidity
    00:00 +15°C° 0.1 mm 1 mps 747 mmHg 81%
    01:00 +15°C° 0 mm 1 mps 747 mmHg 82%
    02:00 +15°C° 0 mm 1 mps 747 mmHg 83%
    03:00 +14°C° 0 mm 1 mps 747 mmHg 84%
    04:00 +15°C° 0 mm 1 mps 747 mmHg 84%
    05:00 +15°C° 0 mm 1 mps 747 mmHg 84%
    06:00 +16°C° 0 mm 1 mps 747 mmHg 83%
    07:00 +18°C° 0 mm 1 mps 747 mmHg 79%
    08:00 +20°C° 0 mm 1 mps 747 mmHg 74%
    09:00 +21°C° 0 mm 1 mps 747 mmHg 70%
    10:00 +22°C° 0 mm 1 mps 747 mmHg 64%
    11:00 +23°C° 0 mm 2 mps 747 mmHg 58%
    12:00 +25°C° 0 mm 2 mps 747 mmHg 52%
    13:00 +25°C° 0 mm 2 mps 747 mmHg 49%
    14:00 +26°C° 0 mm 2 mps 747 mmHg 47%
    15:00 +26°C° 0 mm 2 mps 747 mmHg 45%
    16:00 +26°C° 0 mm 2 mps 747 mmHg 49%
    17:00 +25°C° 0 mm 1 mps 747 mmHg 53%
    18:00 +25°C° 0 mm 1 mps 747 mmHg 57%
    19:00 +23°C° 0.2 mm 1 mps 747 mmHg 61%
    20:00 +22°C° 0.2 mm 1 mps 747 mmHg 64%
    21:00 +20°C° 0.2 mm 1 mps 747 mmHg 68%
    22:00 +19°C° 0.1 mm 1 mps 746 mmHg 71%
    23:00 +19°C° 0.1 mm 1 mps 746 mmHg 74%

    3 June, Wednesday

    Time Temperature Precipitation Wind Pressure Humidity
    00:00 +18°C° 0.1 mm 1 mps 746 mmHg 77%
    01:00 +18°C° 0.5 mm 1 mps 746 mmHg 80%
    02:00 +18°C° 0.5 mm 1 mps 746 mmHg 83%
    03:00 +18°C° 0.5 mm 1 mps 746 mmHg 85%
    04:00 +17°C° 0.3 mm 2 mps 746 mmHg 87%
    05:00 +17°C° 0.3 mm 2 mps 746 mmHg 88%
    06:00 +17°C° 0.3 mm 2 mps 746 mmHg 89%
    07:00 +18°C° 0.8 mm 2 mps 746 mmHg 85%
    08:00 +19°C° 0.8 mm 2 mps 746 mmHg 81%
    09:00 +21°C° 0.8 mm 2 mps 746 mmHg 77%
    10:00 +23°C° 1.3 mm 2 mps 746 mmHg 72%
    11:00 +24°C° 1.3 mm 2 mps 747 mmHg 67%
    12:00 +25°C° 1.3 mm 3 mps 747 mmHg 61%
    13:00 +26°C° 0.8 mm 3 mps 746 mmHg 60%
    14:00 +26°C° 0.8 mm 3 mps 746 mmHg 58%
    15:00 +27°C° 0.8 mm 3 mps 746 mmHg 56%
    16:00 +26°C° 0.2 mm 3 mps 746 mmHg 60%
    17:00 +25°C° 0.2 mm 3 mps 746 mmHg 65%
    18:00 +24°C° 0.2 mm 3 mps 746 mmHg 70%
    19:00 +22°C° 0.3 mm 3 mps 746 mmHg 74%
    20:00 +20°C° 0.3 mm 3 mps 746 mmHg 78%
    21:00 +19°C° 0.3 mm 2 mps 746 mmHg 83%
    22:00 +18°C° 1.9 mm 3 mps 747 mmHg 86%
    23:00 +17°C° 1.9 mm 3 mps 747 mmHg 90%

    4 June, Thursday

    Time Temperature Precipitation Wind Pressure Humidity
    00:00 +17°C° 1.9 mm 3 mps 747 mmHg 94%
    01:00 +17°C° 0.7 mm 2 mps 747 mmHg 94%
    02:00 +16°C° 0.7 mm 2 mps 747 mmHg 94%
    03:00 +16°C° 0.7 mm 1 mps 747 mmHg 94%
    04:00 +16°C° 0.1 mm 2 mps 747 mmHg 93%
    05:00 +16°C° 0.1 mm 2 mps 747 mmHg 92%
    06:00 +16°C° 0.1 mm 3 mps 747 mmHg 91%
    07:00 +17°C° 0 mm 4 mps 748 mmHg 86%
    08:00 +18°C° 0 mm 4 mps 748 mmHg 81%
    09:00 +19°C° 0 mm 5 mps 748 mmHg 75%
    10:00 +20°C° 0.1 mm 5 mps 748 mmHg 70%
    11:00 +21°C° 0.1 mm 6 mps 748 mmHg 64%
    12:00 +22°C° 0.1 mm 6 mps 749 mmHg 58%
    13:00 +22°C° 0 mm 6 mps 749 mmHg 56%
    14:00 +22°C° 0 mm 6 mps 749 mmHg 55%
    15:00 +22°C° 0 mm 6 mps 749 mmHg 53%
    16:00 +22°C° 0 mm 6 mps 749 mmHg 56%
    17:00 +21°C° 0 mm 6 mps 749 mmHg 60%
    18:00 +20°C° 0 mm 5 mps 749 mmHg 63%
    19:00 +19°C° 0 mm 5 mps 750 mmHg 66%
    20:00 +17°C° 0 mm 4 mps 750 mmHg 68%
    21:00 +14°C° 0 mm 4 mps 750 mmHg 71%
    22:00 +14°C° 0 mm 3 mps 751 mmHg 74%
    23:00 +13°C° 0 mm 3 mps 751 mmHg 77%
    Show more